This is the latest recevied weather packets stored in our database for station/object PP5KJ-13. If no packets are shown the sender has not sent any weather packets the latest 10 day(s).
| Time | Temp. | Humidity | Pressure | Rain* | Wind** | Luminosity | Snow |
|---|---|---|---|---|---|---|---|
| 1788132806 | 18.89° C | 5% | 1016 hPa | 1.52 mm | 2.68 m/s, 180° | - | - |
| 1788132206 | 18.89° C | 5% | 1016 hPa | 1.52 mm | 2.68 m/s, 180° | - | - |
| 1788131606 | 18.89° C | 5% | 1016 hPa | 1.52 mm | 2.68 m/s, 180° | - | - |
| 1788131006 | 18.33° C | 5% | 1016 hPa | 1.52 mm | 2.24 m/s, 220° | - | - |
| 1788130406 | 18.89° C | 5% | 1016 hPa | 1.52 mm | 2.24 m/s, 220° | - | - |
| 1788129820 | 18.89° C | 5% | 1016 hPa | 1.52 mm | 2.24 m/s, 220° | - | - |
| 1788129206 | 19.44° C | 5% | 1015 hPa | 1.52 mm | 2.24 m/s, 220° | - | - |
| 1788128606 | 19.44° C | 5% | 1015 hPa | 1.52 mm | 2.24 m/s, 220° | - | - |
| 1788128006 | 19.44° C | 5% | 1015 hPa | 0 mm | 2.24 m/s, 220° | - | - |
| 1788127406 | 19.44° C | 5% | 1015 hPa | 0.25 mm | 2.24 m/s, 220° | - | - |
| 1788126206 | 19.44° C | 5% | 1015 hPa | 0.25 mm | 2.24 m/s, 220° | - | - |
| 1788125606 | 19.44° C | 5% | 1015 hPa | 0 mm | 2.24 m/s, 220° | - | - |
| 1788125006 | 20° C | 5% | 1015 hPa | 0.25 mm | 2.68 m/s, 210° | - | - |
| 1788124406 | 19.44° C | 5% | 1015 hPa | 0.25 mm | 2.68 m/s, 210° | - | - |
| 1788123806 | 19.44° C | 5% | 1015 hPa | 0.76 mm | 2.68 m/s, 210° | - | - |
| 1788123206 | 19.44° C | 5% | 1015 hPa | 0.76 mm | 2.68 m/s, 210° | - | - |
| 1788122608 | 19.44° C | 5% | 1015 hPa | 0.76 mm | 2.68 m/s, 210° | - | - |
| 1788122005 | 19.44° C | 5% | 1015 hPa | 0 mm | 2.68 m/s, 210° | - | - |
| 1788121405 | 20° C | 5% | 1015 hPa | 0 mm | 4.92 m/s, 190° | - | - |
| 1788120805 | 20° C | 5% | 1015 hPa | 0 mm | 4.92 m/s, 190° | - | - |
| 1788119605 | 19.44° C | 5% | 1015 hPa | 0.25 mm | 4.92 m/s, 190° | - | - |
| 1788118405 | 19.44° C | 5% | 1015 hPa | 0 mm | 4.92 m/s, 190° | - | - |
| 1788117805 | 18.89° C | 5% | 1015 hPa | 0 mm | 4.92 m/s, 190° | - | - |
| 1788117205 | 19.44° C | 5% | 1015 hPa | 0 mm | 4.92 m/s, 190° | - | - |
| 1788116605 | 18.89° C | 5% | 1015 hPa | 0 mm | 4.92 m/s, 190° | - | - |
* Rain latest hour (hover to see other rain measurements)
** Current wind speed in m/s (hover to see current wind gust speed)